Regional Weather Roundup
Issued by NWS Kansas City/Pleasant Hill, MO

Home | Current Version | Previous Version | Text Only | Print | Product List | Glossary On
Versions: 1 2 3 4 5 6 7 8 9 10 11 12 13 14 15 16 17 18 19 20 21 22 23 24 25 26 27 28 29 30 31 32 33 34 35 36 37 38 39 40 41 42 43 44 45 46 47 48 49 50
000
ASUS43 KEAX 011904
RWREAX

WEATHER ROUNDUP FOR EASTERN KANSAS AND NORTHWEST MISSOURI
NATIONAL WEATHER SERVICE KANSAS CITY/PLEASANT HILL MO
200 PM CDT WED JUL 01 2015

KSZ040-057-103>105-MOZ028-029-037-043-012000-
...KANSAS CITY METROPOLITAN AREA...

CITY           SKY/WX    TMP DP  RH WIND       PRES   REMARKS
K.C. INTL      CLOUDY    80  74  81 E9        29.84F
K.C. DOWNTOWN  PTSUNNY   84  72  67 S12       29.83F
LEES SUMMIT    MOSUNNY   81  71  71 S12       29.86S
OLATHE - IXD   MOSUNNY   83  73  72 S17G24    29.83F
OLATHE - OJC   MOSUNNY   81  73  76 S17G24    29.83F
LAWRENCE       MOSUNNY   87  73  62 S12       29.81F HX  94

$$

MOZ001>008-011>017-020>025-030>033-038>040-044>046-053-054-012000-
...NORTHERN AND CENTRAL MISSOURI...

CITY           SKY/WX    TMP DP  RH WIND       PRES   REMARKS
ST. JOSEPH     PTSUNNY   81  71  71 SE10      29.84F
MOSBY          CLOUDY    77  70  78 E9        29.85F
HARRISONVILLE  MOSUNNY   81  72  74 S10       29.87F
WHITEMAN AFB   PTSUNNY   76  76 100 S7        29.86F
CLINTON        PTSUNNY   79  73  83 S9        29.86S
SEDALIA        PTSUNNY   78  71  79 CALM      29.89S
WARSAW         FAIR      77  73  88 S14       29.86F
CHILLICOTHE      N/A     80  71  74 E6        29.87F
KIRKSVILLE     LGT RAIN  78  70  76 S5        29.90F

$$

MOZ041-047>049-056>058-063>065-088>090-097-012000-
...EASTERN AND SOUTHERN MISSOURI...

CITY           SKY/WX    TMP DP  RH WIND       PRES   REMARKS
ST. LOUIS INTL PTSUNNY   86  69  56 W9        29.89F HX  90
SPIRIT OF STL  PTSUNNY   82  70  66 VRB3      29.87F
COLUMBIA       PTSUNNY   77  69  76 W3        29.90S
JEFFERSON CITY CLOUDY    78  68  71 NE3       29.87F
MEXICO         CLOUDY    79  73  83 W6        29.89F
ROLLA          CLOUDY    74  68  81 SW9       29.90F
LEBANON        CLOUDY    75  68  78 S12       29.93F
OSAGE BEACH    CLOUDY    73  70  88 S9        29.89F
SPRINGFIELD    LGT RAIN  74  68  81 S12       29.95F
BRANSON        PTSUNNY   77  72  83 SE8       29.99F
NEVADA         CLOUDY    77  72  83 S15       29.86F
JOPLIN         CLOUDY    85  74  69 S10       29.89F HX  92
WEST PLAINS    CLOUDY    72  67  84 SW10      29.98S
MALDEN         CLOUDY    77  68  73 S13       29.91F

$$

IAZ060-094-KSZ022-034>040-054-083-096-NEZ052-066-093-012000-
...KANSAS...SOUTHEAST NEBRASKA AND IOWA...

CITY           SKY/WX    TMP DP  RH WIND       PRES   REMARKS
TOPEKA         MOSUNNY   85  71  63 S12G21    29.80F HX  90
MANHATTAN      PTSUNNY   93  63  36 VRB5      29.79R HX  94
EMPORIA        CLOUDY    84  71  65 S3        29.80S
CHANUTE        LGT RAIN  84  73  69 S13       29.82F HX  90
WICHITA        CLOUDY    94  63  35 SW13      29.79F HX  95
OMAHA          MOSUNNY   83  69  62 E10       29.87S
LINCOLN        MOSUNNY   84  70  62 S3        29.86R
FALLS CITY     CLOUDY    81  72  74 E10       29.83F
LAMONI         CLOUDY    75  69  81 VRB7      29.88F
DES MOINES     CLOUDY    74  63  68 NE10      29.92S

$$



USA.gov is the U.S. government's official web portal to all federal, state and local government web resources and services.